This is the latest recevied weather packets stored in our database for station/object OE-11140. If no packets are shown the sender has not sent any weather packets the latest 10 day(s).
| Time | Temp. | Humidity | Pressure | Rain* | Wind** | Luminosity | Snow |
|---|---|---|---|---|---|---|---|
| 1787687716 | 15.56° C | 93% | 1016.6 hPa | 0 mm | - | 0 W/m² | - |
| 1787686889 | 16.11° C | 93% | 1016.5 hPa | 0 mm | - | 0 W/m² | - |
| 1787686515 | 16.11° C | 94% | 1016.4 hPa | 0 mm | - | 0 W/m² | - |
| 1787685916 | 16.11° C | 94% | 1016.4 hPa | 0 mm | - | 0 W/m² | - |
| 1787685089 | 16.11° C | 94% | 1016.4 hPa | 0 mm | - | 0 W/m² | - |
| 1787684715 | 16.11° C | 94% | 1016.1 hPa | 0 mm | - | 0 W/m² | - |
| 1787684116 | 16.11° C | 94% | 1016.1 hPa | 0 mm | - | 0 W/m² | - |
| 1787683289 | 16.11° C | 94% | 1016.1 hPa | 0 mm | - | 0 W/m² | - |
| 1787682316 | 16.11° C | 93% | 1015.8 hPa | 0 mm | - | 0 W/m² | - |
| 1787681489 | 16.67° C | 93% | 1015.6 hPa | 0 mm | - | 0 W/m² | - |
| 1787681116 | 16.67° C | 92% | 1015.5 hPa | 0 mm | - | 13 W/m² | - |
| 1787680516 | 16.67° C | 92% | 1015.5 hPa | 0 mm | - | 20 W/m² | - |
| 1787679689 | 16.67° C | 92% | 1015.4 hPa | 0 mm | - | 33 W/m² | - |
| 1787679316 | 16.67° C | 92% | 1015.3 hPa | 0.25 mm | - | 40 W/m² | - |
| 1787678716 | 16.67° C | 92% | 1015.3 hPa | 0.25 mm | - | 40 W/m² | - |
| 1787677889 | 16.67° C | 92% | 1015.3 hPa | 0.51 mm | - | 46 W/m² | - |
| 1787677516 | 16.67° C | 92% | 1015.3 hPa | 0.76 mm | - | 53 W/m² | - |
| 1787676915 | 16.67° C | 92% | 1015.3 hPa | 0.76 mm | - | 80 W/m² | - |
| 1787676089 | 16.67° C | 92% | 1015.3 hPa | 0.76 mm | - | 86 W/m² | - |
| 1787675716 | 16.11° C | 91% | 1015.3 hPa | 1.02 mm | - | 66 W/m² | - |
| 1787675115 | 16.11° C | 92% | 1015.3 hPa | 0.76 mm | - | 60 W/m² | - |
| 1787674289 | 16.11° C | 92% | 1015.5 hPa | 0.76 mm | - | 53 W/m² | - |
| 1787673916 | 16.11° C | 92% | 1015.5 hPa | 0.51 mm | - | 53 W/m² | - |
| 1787673316 | 16.11° C | 92% | 1015.3 hPa | 0.51 mm | - | 40 W/m² | - |
| 1787672489 | 16.11° C | 91% | 1015.3 hPa | 0.25 mm | - | 33 W/m² | - |
* Rain latest hour (hover to see other rain measurements)
** Current wind speed in m/s (hover to see current wind gust speed)